[Iaude] MPEC J72: 2024 JO1 [a=1.04,e=0.16,i=9.3,H=27.7]

mpec at cfa.harvard.edu mpec at cfa.harvard.edu
Sat May 4 20:57:59 EDT 2024


M.P.E.C. 2024-J72                                   Issued 2024 May 5, 00:56 UT

     The Minor Planet Electronic Circulars contain information on unusual
         minor planets, routine data on comets and natural satellites,
         and occasional editorial announcements.  They are published
    on behalf of Division F of the International Astronomical Union by the
          Minor Planet Center, Smithsonian Astrophysical Observatory,
                          Cambridge, MA 02138, U.S.A.
			  
             Prepared using the Tamkin Foundation Computer Network

                              MPC at CFA.HARVARD.EDU
            URL https://www.minorplanetcenter.net/    ISSN 1523-6714

                                    2024 JO1                                    


Observations:
     K24J01O*KC2024 05 03.96306 16 50 50.82 -06 25 03.9          19.4 GXEJ072L51
     K24J01O KC2024 05 03.96409 16 50 49.60 -06 24 30.7          19.6 GXEJ072L51
     K24J01O KC2024 05 03.96513 16 50 48.30 -06 23 56.8          19.4 GXEJ072L51
     K24J01O KC2024 05 03.98704 16 50 22.08 -06 12 06.1          19.0 GXEJ072L51
     K24J01O KC2024 05 03.98872 16 50 20.07 -06 11 12.9          19.0 GXEJ072L51
     K24J01O KC2024 05 03.99032 16 50 18.15 -06 10 22.5          19.1 GXEJ072L51
     K24J01O KC2024 05 04.10031616 48 27.456-05 12 58.72         19.4 GVEJ072J95
     K24J01O KC2024 05 04.10293316 48 24.516-05 11 37.32         19.1 GVEJ072J95
     K24J01O KC2024 05 04.10487216 48 22.279-05 10 37.09         20.0 GVEJ072J95
     K24J01O KC2024 05 04.24496416 46 27.37 -03 58 35.0          21.2 GVEJ072H21
     K24J01O KC2024 05 04.24811516 46 23.96 -03 57 02.2          21.0 GVEJ072H21
     K24J01O KC2024 05 04.25126516 46 20.55 -03 55 29.3                VEJ072H21
     K24J01O KC2024 05 04.33249116 45 02.06 -03 15 38.6          19.7 GXEJ072858
     K24J01O KC2024 05 04.33816816 44 55.90 -03 12 56.1          19.5 GXEJ072858
     K24J01O KC2024 05 04.34544216 44 48.06 -03 09 28.8          19.8 GXEJ072858
     K24J01O !C2024 05 04.41156 16 43 43.38 -02 38 18.8          19.7 GVEJ072673
     K24J01O !C2024 05 04.41363 16 43 41.18 -02 37 20.6                VEJ072673
     K24J01O KB2024 05 04.84863 16 38 12.81 +00 28 50.3                XEJ072M45
     K24J01O KB2024 05 04.85329 16 38 08.97 +00 30 42.5                XEJ072M45
     K24J01O 1C2024 05 04.93821 16 37 00.06 +01 03 35.5          21.4 VXEJ072033
     K24J01O 1C2024 05 04.93895 16 36 59.46 +01 03 52.4          21.0 VXEJ072033
     K24J01O 1C2024 05 04.93957 16 36 58.97 +01 04 06.7          21.3 VXEJ072033
     K24J01O KB2024 05 04.94999916 36 56.16 +01 08 52.9          19.5 GXEJ072958
     K24J01O KB2024 05 04.95542516 36 51.59 +01 10 57.8          19.7 GXEJ072958
     K24J01O KB2024 05 04.96095416 36 47.01 +01 13 06.4          19.8 GXEJ072958
     K24J01O KB2024 05 05.01402016 36 01.65 +01 33 16.1          20.3 GXEJ072I93
     K24J01O KB2024 05 05.01832216 35 57.97 +01 34 53.8          19.8 GXEJ072I93
     K24J01O KB2024 05 05.02302816 35 53.99 +01 36 41.4          19.8 GXEJ072I93

Observer details:
033 Karl Schwarzschild Observatory, Tautenburg.  Observers S. Melnikov, C.
    Hogner, F. Ludwig, M. Hartmann, B. Stecklum.  Measurer B. Stecklum.
    1.34-m f/3 Schmidt + CCD.
673 Table Mountain Observatory, Wrightwood.  Observer J. Pittichova.  1.0-m
    f/15 reflector + CCD.
858 Tebbutt Observatory, Edgewood.  Observer F. B. Zoltowski.  0.51-m f/8.1
    Schmidt-Cassegrain + CCD.
958 Observatoire de Dax.  Observer P. Dupouy.  0.50-m f/4.5 Reflector + CMO.
H21 Astronomical Research Observatory, Westfield.  Observer R. Holmes.
    Measurers T. Linder, R. Holmes, L. Horn.  0.76-m f/3.0 astrograph + CCD.
I93 St Pardon de Conques.  Observer F. Losse.  0.40-m f/3.7 reflector + CCD.
J95 Great Shefford.  Observer P. Birtwhistle.  0.41-m f/6.3 Schmidt-Cassegrain
    + CCD.
L51 MARGO, Nauchnyi.  Observer G. Borisov.  0.50-m f/1.9 reflector + CCD.
M45 Starhopper Observatory, Sfantu Gheorghe.  Observer F. Ursache.  0.41-m
    f/7.5 reflector + CMO.

Orbital elements:
2024 JO1                                                 Earth MOID = 0.0066 AU
Epoch 2024 Mar. 31.0 TT = JDT 2460400.5                 MPC                     
M  41.75394              (2000.0)            P               Q                  
n   0.92498193     Peri.  270.19348     -0.67180935     -0.73258861             
a   1.0432312      Node   222.70520     +0.72747725     -0.62472068             
e   0.1572821      Incl.    9.28949     +0.13945987     -0.27025544             
P   1.07           H   27.74          G   0.15           U   7                  
Residuals in seconds of arc
240503 L51  0.2-  1.4+    240504 H21  0.0   0.1+    240504 033  0.2-  0.1-
240503 L51  0.1+  1.0+    240504 H21  0.2+  0.3+    240504 033  0.2+  0.2-
240503 L51  0.7-  1.1+    240504 858  0.0   0.2-    240504 958  0.0   0.4+
240503 L51  0.6-  1.4+    240504 858  0.3-  0.0     240504 958  0.5-  0.5-
240503 L51  0.7-  0.3+    240504 858  0.0   0.2-    240504 958  0.2+  0.2+
240503 L51  0.9-  1.0-    240504 673  0.2-  0.0     240505 I93  0.4+  0.5-
240504 J95  0.2+  0.1-    240504 673  0.3-  0.5+    240505 I93  0.1+  0.4-
240504 J95  0.2+  0.1-    240504 M45  1.3-  1.2+    240505 I93  0.4+  0.6+
240504 J95  0.7-  0.0     240504 M45  0.5-  1.7+
240504 H21  0.1-  0.0     240504 033  0.5-  0.2+

Ephemeris:
2024 JO1                 a,e,i = 1.04, 0.16, 9                   q = 0.8791
Date    TT    R. A. (2000) Decl.     Delta      r    Elong.  Phase     V
2024 04 05    03 08 27.9 -36 10 13   0.09389 0.9459    52.3   123.2    27.6
...
2024 04 20    02 48 38.1 -45 02 30   0.04096 0.9835    58.0   120.0    25.6
...
2024 04 28    00 08 53.7 -63 37 22   0.01508 1.0047    81.9    97.3    22.1
...
2024 05 04    16 50 09.3 -05 57 54   0.01473 1.0208   147.7    31.8    20.0
2024 05 05    16 36 03.6 +01 33 22   0.01751 1.0235   148.1    31.4    20.3
2024 05 06    16 25 51.3 +06 55 42   0.02055 1.0261   147.1    32.3    20.7
...
2024 05 12    15 57 01.9 +20 29 38   0.04096 1.0420   140.1    38.5    22.4
...
2024 05 20    15 44 05.3 +24 51 39   0.06995 1.0626   135.2    42.2    23.7
...
2024 06 04    15 37 02.9 +25 08 18   0.1265  1.0991   129.4    45.5    25.2

A. U. Tomatic                (C) Copyright 2024 MPC           M.P.E.C. 2024-J72





More information about the Iaude mailing list